Skip Page Navigation
NASA JPL Caltech
NASA Logo - Jet Propulsion Laboratory + View the NASA Portal
+ Center for Near-Earth Object Studies
JPL Home Earth Solar System Stars & Galaxies Technology
JPL Solar System Dynamics
BODIES ORBITS EPHEMERIDES TOOLS PHYSICAL DATA DISCOVERY FAQ SITE MAP
JPL Small-Body Database Browser
Search: [ help ]  
187409 (2005 VE58)
Classification: Outer Main-belt Asteroid          SPK-ID: 2187409
Ephemeris | Orbit Diagram | Orbital Elements | Mission Design | Physical Parameters | Discovery Circumstances | Close-Approach Data ]

[ hide orbit diagram ]

For accurate long-term ephemerides, please instead use our Horizons system.This orbit viewer was implemented using two-body methods, and hence should not be used for determining accurate long-term trajectories (over several years or decades) or planetary encounter circumstances.


Orbital Elements at Epoch 2459396.5 (2021-Jul-01.0) TDB
Reference: JPL 11 (heliocentric ecliptic J2000)
 Element Value Uncertainty (1-sigma)   Units 
e .1273516534754908 5.1507e-08  
a 3.243857312954318 3.668e-08 au
q 2.830746720511023 1.6925e-07 au
i 4.575745158714813 5.3681e-06 deg
node 153.6376586204995 7.1664e-05 deg
peri 278.7387331893156 7.5581e-05 deg
M 245.0824264166423 2.8569e-05 deg
tp 2460077.700546521388
(2023-May-13.20054652)
0.00017619 TDB
period 2133.983420471507
5.84
3.6196e-05
9.91e-08
d
yr
n .1686985927568535 2.8614e-09 deg/d
Q 3.656967905397613 4.1352e-08 au
  Orbit Determination Parameters
   # obs. used (total)      290  
   data-arc span      7083 days (19.39 yr)  
   first obs. used      2001-02-03  
   last obs. used      2020-06-26  
   planetary ephem.      DE441  
   SB-pert. ephem.      SB441-N16  
   condition code      0  
   norm. resid. RMS      .57127  
   source      ORB  
   producer      Otto Matic  
   solution date      2021-Apr-13 21:55:17  

Additional Information
 Earth MOID = 1.85 au 
 Jupiter MOID = 1.63172 au 
 T_jup = 3.165 
[ show covariance matrix ]

Ephemeris | Orbit Diagram | Orbital Elements | Mission Design | Physical Parameters | Discovery Circumstances | Close-Approach Data ]

Physical Parameter Table
Parameter Symbol Value Units Sigma Reference Notes
absolute magnitude H 15.4   n/a MPO436927  

187409 (2005 VE58)          Discovered 2005-Nov-04 by Mt. Lemmon Survey at Mount Lemmon
Reference: 20080520/Numbers.arcLast Updated: 2008-05-22

[ show close-approach data ]
Ephemeris | Orbit Diagram | Orbital Elements | Mission Design | Physical Parameters | Discovery Circumstances | Close-Approach Data ]
ABOUT SSD CREDITS/AWARDS PRIVACY/COPYRIGHT GLOSSARY LINKS
FirstGov 2021-Aug-03 04:05 UT
(server date/time)  
NASA Home Page
Site Manager:   Ryan S. Park
Webmaster  Alan B. Chamberlin